Ocean Exporter — VRXJ4 — position and weather

sailwx.info

Track history (hours):
 
Tides and Currents Weather Stations Pressure Air Temp Water Temp Dewpoint Dewpoint Depression Visibility Wind Speed Wind Dir Waves Ship Positions

Ocean Exporter

Last reported at 2014-Nov-06 21:08 UTC. Time now 2014-Nov-29 05:05 UTC.
Position S 29°30' E 031°53'.
Warning: this ship's position is 22 days out of date.

Length 169 m; draft 5.7 m.

Type: Cargo ship. MMSI: 477980000.

Date/timePositionNaut miles runAvg speedWind from/ knotsBaromVisibWave heightAir tempDewpointWater temp
2014-Nov-06 21:08S 29°30' E 031°53'710.1
2014-Nov-06 20:28S 29°35' E 031°49'9 9.7
2014-Nov-06 19:30S 29°43' E 031°42'9 9.5
2014-Nov-06 18:32S 29°51' E 031°36'9 9.3
2014-Nov-06 17:33S 29°58' E 031°30'9 9.5
2014-Nov-06 16:33S 30°06' E 031°23'9 9.0
2014-Nov-06 15:33S 30°13' E 031°17'42 9.7
2014-Nov-06 11:13S 30°47' E 030°48'  
2014-Nov-01 08:33S 30°12' E 031°05'1211.8
2014-Nov-01 07:34S 30°01' E 031°09'9 9.2
2014-Nov-01 06:34S 29°52' E 031°06'5 4.8
2014-Nov-01 05:31S 29°53' E 031°00'0 0.2
2014-Nov-01 04:31S 29°53' E 031°00'0 0.0
2014-Nov-01 03:31S 29°53' E 031°00'0 0.0
2014-Nov-01 02:25S 29°53' E 031°00'0 0.0
2014-Nov-01 01:25S 29°53' E 031°00'0 0.0
2014-Nov-01 00:31S 29°53' E 031°00'0 0.0
2014-Oct-31 23:31S 29°53' E 031°00'0 0.0
2014-Oct-31 22:31S 29°53' E 031°00'0 0.0
2014-Oct-31 21:31S 29°53' E 031°00'0 0.0
2014-Oct-31 20:31S 29°53' E 031°00'0 0.0
2014-Oct-31 19:31S 29°53' E 031°00'0 0.0
2014-Oct-31 18:31S 29°53' E 031°00'0 0.0
2014-Oct-31 17:31S 29°53' E 031°00'0 0.0
2014-Oct-31 16:31S 29°53' E 031°00'0 0.0
2014-Oct-31 15:31S 29°53' E 031°00'0 0.0
2014-Oct-31 14:31S 29°53' E 031°00'0 0.0
2014-Oct-31 13:31S 29°53' E 031°00'0 0.0
2014-Oct-31 12:31S 29°53' E 031°00'0 0.0
2014-Oct-31 10:31S 29°53' E 031°00'0 0.0
2014-Oct-31 09:31S 29°53' E 031°00'0 0.0
2014-Oct-31 08:31S 29°53' E 031°00'0 0.0
2014-Oct-31 07:19S 29°53' E 031°00'0 0.0
2014-Oct-31 06:31S 29°53' E 031°00'0 0.0
2014-Oct-31 05:31S 29°53' E 031°00'0 0.0
2014-Oct-31 04:25S 29°53' E 031°00'0 0.0
2014-Oct-31 03:31S 29°53' E 031°00'0 0.0
2014-Oct-31 02:24S 29°53' E 031°00'0 0.0
2014-Oct-31 01:24S 29°53' E 031°00'0 0.0
2014-Oct-31 00:18S 29°53' E 031°00'0 0.0
2014-Oct-30 23:24S 29°53' E 031°00'0 0.0
2014-Oct-30 22:30S 29°53' E 031°00'0 0.0
2014-Oct-30 21:30S 29°53' E 031°00'0 0.0
2014-Oct-30 20:30S 29°53' E 031°00'0 0.0
2014-Oct-30 19:30S 29°53' E 031°00'0 0.0
2014-Oct-30 18:30S 29°53' E 031°00'0 0.0
2014-Oct-30 17:30S 29°53' E 031°00'0 0.0
2014-Oct-30 16:30S 29°53' E 031°00'0 0.0
2014-Oct-30 15:30S 29°53' E 031°00'0 0.0
2014-Oct-30 14:30S 29°53' E 031°00'0 0.0
2014-Oct-30 13:30S 29°53' E 031°00'0 0.0
2014-Oct-30 12:30S 29°53' E 031°00'0 0.0
2014-Oct-30 11:30S 29°53' E 031°00'0 0.0
2014-Oct-30 10:30S 29°53' E 031°00'0 0.0
2014-Oct-30 09:30S 29°53' E 031°00'0 0.0
2014-Oct-30 08:24S 29°53' E 031°00'0 0.0
2014-Oct-30 07:24S 29°53' E 031°00'0 0.0
2014-Oct-30 06:12S 29°53' E 031°00'0 0.0
2014-Oct-30 05:30S 29°53' E 031°00'0 0.0
2014-Oct-30 04:30S 29°53' E 031°00'0 0.0
2014-Oct-30 03:30S 29°53' E 031°00'0 0.0
2014-Oct-30 02:30S 29°53' E 031°00'0 0.0
2014-Oct-30 01:24S 29°53' E 031°00'0 0.0
2014-Oct-30 00:30S 29°53' E 031°00'0 0.0
2014-Oct-29 23:30S 29°53' E 031°00'0 0.0
2014-Oct-29 22:33S 29°53' E 031°00'0 0.0
2014-Oct-29 21:33S 29°53' E 031°00'0 0.0
2014-Oct-29 20:33S 29°53' E 031°00'0 0.0
2014-Oct-29 19:33S 29°53' E 031°00'0 0.0
2014-Oct-29 18:33S 29°53' E 031°00'0 0.0
2014-Oct-29 17:33S 29°53' E 031°00'0 0.0
2014-Oct-29 16:27S 29°53' E 031°00'0 0.0
2014-Oct-29 15:27S 29°53' E 031°00'0 0.0
2014-Oct-29 14:33S 29°53' E 031°00'0 0.0
2014-Oct-29 13:33S 29°53' E 031°00'0 0.0
2014-Oct-29 12:33S 29°53' E 031°00'0 0.0
2014-Oct-29 11:33S 29°53' E 031°00'0 0.0
2014-Oct-29 10:33S 29°53' E 031°00'0 0.0
2014-Oct-29 09:33S 29°53' E 031°00'0 0.0
2014-Oct-29 08:33S 29°53' E 031°00'0 0.0
2014-Oct-29 07:33S 29°53' E 031°00'0 0.0
2014-Oct-29 06:33S 29°53' E 031°00'0 0.0
2014-Oct-29 05:33S 29°53' E 031°00'0 0.0
2014-Oct-29 04:27S 29°53' E 031°00'0 0.0
2014-Oct-29 03:33S 29°53' E 031°00'0 0.0
2014-Oct-29 02:33S 29°53' E 031°00'0 0.0
2014-Oct-29 01:27S 29°53' E 031°00'0 0.0
2014-Oct-29 00:33S 29°53' E 031°00'0 0.0
2014-Oct-28 23:32S 29°53' E 031°00'0 0.0
2014-Oct-28 22:32S 29°53' E 031°00'0 0.0
2014-Oct-28 21:26S 29°53' E 031°00'0 0.0
2014-Oct-28 20:32S 29°53' E 031°00'0 0.0
2014-Oct-28 19:32S 29°53' E 031°00'0 0.0
2014-Oct-28 18:32S 29°53' E 031°00'0 0.0
2014-Oct-28 17:32S 29°53' E 031°00'0 0.0
2014-Oct-28 15:14S 29°53' E 031°00'0 0.0
2014-Oct-28 14:14S 29°53' E 031°00'0 0.0
2014-Oct-28 11:32S 29°53' E 031°00'3 3.2
2014-Oct-28 10:33S 29°52' E 031°04'3 2.9
2014-Oct-28 09:33S 29°50' E 031°06'1 1.0
2014-Oct-28 08:33S 29°50' E 031°07'0 0.1
2014-Oct-28 07:33S 29°50' E 031°07'1 0.8
2014-Oct-28 06:33S 29°50' E 031°06'1 0.6
2014-Oct-28 05:33S 29°49' E 031°07'2 1.8
2014-Oct-28 04:33S 29°48' E 031°07'4 4.1
2014-Oct-28 03:34S 29°44' E 031°09'0 0.0
2014-Oct-28 02:33S 29°44' E 031°09'0 0.0
2014-Oct-28 01:33S 29°44' E 031°09'0 0.0
2014-Oct-28 00:33S 29°44' E 031°09'0 0.0
2014-Oct-27 23:33S 29°44' E 031°09'0 0.0
2014-Oct-27 22:33S 29°44' E 031°09'0 0.0
2014-Oct-27 21:34S 29°44' E 031°09'  
Track history (hours):
 
Tides and Currents Weather Stations Pressure Air Temp Water Temp Dewpoint Dewpoint Depression Visibility Wind Speed Wind Dir Waves Ship Positions

Ocean Exporter

Last reported at 2014-Nov-06 21:08 UTC. Time now 2014-Nov-29 05:05 UTC.
Position S 29°30' E 031°53'.
Warning: this ship's position is 22 days out of date.

Length 169 m; draft 5.7 m.

Type: Cargo ship. MMSI: 477980000.

Date/timePositionNaut miles runAvg speedWind from/ knotsBaromVisibWave heightAir tempDewpointWater temp
2014-Nov-06 21:08S 29°30' E 031°53'710.1
2014-Nov-06 20:28S 29°35' E 031°49'9 9.7
2014-Nov-06 19:30S 29°43' E 031°42'9 9.5
2014-Nov-06 18:32S 29°51' E 031°36'9 9.3
2014-Nov-06 17:33S 29°58' E 031°30'9 9.5
2014-Nov-06 16:33S 30°06' E 031°23'9 9.0
2014-Nov-06 15:33S 30°13' E 031°17'42 9.7
2014-Nov-06 11:13S 30°47' E 030°48'  
2014-Nov-01 08:33S 30°12' E 031°05'1211.8
2014-Nov-01 07:34S 30°01' E 031°09'9 9.2
2014-Nov-01 06:34S 29°52' E 031°06'5 4.8
2014-Nov-01 05:31S 29°53' E 031°00'0 0.2
2014-Nov-01 04:31S 29°53' E 031°00'0 0.0
2014-Nov-01 03:31S 29°53' E 031°00'0 0.0
2014-Nov-01 02:25S 29°53' E 031°00'0 0.0
2014-Nov-01 01:25S 29°53' E 031°00'0 0.0
2014-Nov-01 00:31S 29°53' E 031°00'0 0.0
2014-Oct-31 23:31S 29°53' E 031°00'0 0.0
2014-Oct-31 22:31S 29°53' E 031°00'0 0.0
2014-Oct-31 21:31S 29°53' E 031°00'0 0.0
2014-Oct-31 20:31S 29°53' E 031°00'0 0.0
2014-Oct-31 19:31S 29°53' E 031°00'0 0.0
2014-Oct-31 18:31S 29°53' E 031°00'0 0.0
2014-Oct-31 17:31S 29°53' E 031°00'0 0.0
2014-Oct-31 16:31S 29°53' E 031°00'0 0.0
2014-Oct-31 15:31S 29°53' E 031°00'0 0.0
2014-Oct-31 14:31S 29°53' E 031°00'0 0.0
2014-Oct-31 13:31S 29°53' E 031°00'0 0.0
2014-Oct-31 12:31S 29°53' E 031°00'0 0.0
2014-Oct-31 10:31S 29°53' E 031°00'0 0.0
2014-Oct-31 09:31S 29°53' E 031°00'0 0.0
2014-Oct-31 08:31S 29°53' E 031°00'0 0.0
2014-Oct-31 07:19S 29°53' E 031°00'0 0.0
2014-Oct-31 06:31S 29°53' E 031°00'0 0.0
2014-Oct-31 05:31S 29°53' E 031°00'0 0.0
2014-Oct-31 04:25S 29°53' E 031°00'0 0.0
2014-Oct-31 03:31S 29°53' E 031°00'0 0.0
2014-Oct-31 02:24S 29°53' E 031°00'0 0.0
2014-Oct-31 01:24S 29°53' E 031°00'0 0.0
2014-Oct-31 00:18S 29°53' E 031°00'0 0.0
2014-Oct-30 23:24S 29°53' E 031°00'0 0.0
2014-Oct-30 22:30S 29°53' E 031°00'0 0.0
2014-Oct-30 21:30S 29°53' E 031°00'0 0.0
2014-Oct-30 20:30S 29°53' E 031°00'0 0.0
2014-Oct-30 19:30S 29°53' E 031°00'0 0.0
2014-Oct-30 18:30S 29°53' E 031°00'0 0.0
2014-Oct-30 17:30S 29°53' E 031°00'0 0.0
2014-Oct-30 16:30S 29°53' E 031°00'0 0.0
2014-Oct-30 15:30S 29°53' E 031°00'0 0.0
2014-Oct-30 14:30S 29°53' E 031°00'0 0.0
2014-Oct-30 13:30S 29°53' E 031°00'0 0.0
2014-Oct-30 12:30S 29°53' E 031°00'0 0.0
2014-Oct-30 11:30S 29°53' E 031°00'0 0.0
2014-Oct-30 10:30S 29°53' E 031°00'0 0.0
2014-Oct-30 09:30S 29°53' E 031°00'0 0.0
2014-Oct-30 08:24S 29°53' E 031°00'0 0.0
2014-Oct-30 07:24S 29°53' E 031°00'0 0.0
2014-Oct-30 06:12S 29°53' E 031°00'0 0.0
2014-Oct-30 05:30S 29°53' E 031°00'0 0.0
2014-Oct-30 04:30S 29°53' E 031°00'0 0.0
2014-Oct-30 03:30S 29°53' E 031°00'0 0.0
2014-Oct-30 02:30S 29°53' E 031°00'0 0.0
2014-Oct-30 01:24S 29°53' E 031°00'0 0.0
2014-Oct-30 00:30S 29°53' E 031°00'0 0.0
2014-Oct-29 23:30S 29°53' E 031°00'0 0.0
2014-Oct-29 22:33S 29°53' E 031°00'0 0.0
2014-Oct-29 21:33S 29°53' E 031°00'0 0.0
2014-Oct-29 20:33S 29°53' E 031°00'0 0.0
2014-Oct-29 19:33S 29°53' E 031°00'0 0.0
2014-Oct-29 18:33S 29°53' E 031°00'0 0.0
2014-Oct-29 17:33S 29°53' E 031°00'0 0.0
2014-Oct-29 16:27S 29°53' E 031°00'0 0.0
2014-Oct-29 15:27S 29°53' E 031°00'0 0.0
2014-Oct-29 14:33S 29°53' E 031°00'0 0.0
2014-Oct-29 13:33S 29°53' E 031°00'0 0.0
2014-Oct-29 12:33S 29°53' E 031°00'0 0.0
2014-Oct-29 11:33S 29°53' E 031°00'0 0.0
2014-Oct-29 10:33S 29°53' E 031°00'0 0.0
2014-Oct-29 09:33S 29°53' E 031°00'0 0.0
2014-Oct-29 08:33S 29°53' E 031°00'0 0.0
2014-Oct-29 07:33S 29°53' E 031°00'0 0.0
2014-Oct-29 06:33S 29°53' E 031°00'0 0.0
2014-Oct-29 05:33S 29°53' E 031°00'0 0.0
2014-Oct-29 04:27S 29°53' E 031°00'0 0.0
2014-Oct-29 03:33S 29°53' E 031°00'0 0.0
2014-Oct-29 02:33S 29°53' E 031°00'0 0.0
2014-Oct-29 01:27S 29°53' E 031°00'0 0.0
2014-Oct-29 00:33S 29°53' E 031°00'0 0.0
2014-Oct-28 23:32S 29°53' E 031°00'0 0.0
2014-Oct-28 22:32S 29°53' E 031°00'0 0.0
2014-Oct-28 21:26S 29°53' E 031°00'0 0.0
2014-Oct-28 20:32S 29°53' E 031°00'0 0.0
2014-Oct-28 19:32S 29°53' E 031°00'0 0.0
2014-Oct-28 18:32S 29°53' E 031°00'0 0.0
2014-Oct-28 17:32S 29°53' E 031°00'0 0.0
2014-Oct-28 15:14S 29°53' E 031°00'0 0.0
2014-Oct-28 14:14S 29°53' E 031°00'0 0.0
2014-Oct-28 11:32S 29°53' E 031°00'3 3.2
2014-Oct-28 10:33S 29°52' E 031°04'3 2.9
2014-Oct-28 09:33S 29°50' E 031°06'1 1.0
2014-Oct-28 08:33S 29°50' E 031°07'0 0.1
2014-Oct-28 07:33S 29°50' E 031°07'1 0.8
2014-Oct-28 06:33S 29°50' E 031°06'1 0.6
2014-Oct-28 05:33S 29°49' E 031°07'2 1.8
2014-Oct-28 04:33S 29°48' E 031°07'4 4.1
2014-Oct-28 03:34S 29°44' E 031°09'0 0.0
2014-Oct-28 02:33S 29°44' E 031°09'0 0.0
2014-Oct-28 01:33S 29°44' E 031°09'0 0.0
2014-Oct-28 00:33S 29°44' E 031°09'0 0.0
2014-Oct-27 23:33S 29°44' E 031°09'0 0.0
2014-Oct-27 22:33S 29°44' E 031°09'0 0.0
2014-Oct-27 21:34S 29°44' E 031°09'  

Dump ship's entire track history